| time (UTC) | temp F | wind direction | speed knots | gust knots | rain 1hr in | rain 24hr in | rain mn in | humidity % | barometer mb |
| 20260503211514 | 89 | 237 | 0.0 | 1.7 | 0.00 | 0.00 | 0.00 | 25 | 1008.7 |
| 20260503210028 | 89 | 148 | 0.0 | 1.7 | 0.00 | 0.00 | 0.00 | 25 | 1008.9 |
| 20260503193044 | 84 | 139 | 0.0 | 1.7 | 0.00 | 0.00 | 0.00 | 34 | 1010.0 |
| 20260503184548 | 80 | 166 | 0.0 | 1.7 | 0.00 | 0.00 | 0.00 | 42 | 1010.4 |
| 20260503183020 | 79 | 113 | 0.0 | 2.6 | 0.00 | 0.00 | 0.00 | 41 | 1010.6 |
| 20260503171520 | 71 | 143 | 0.0 | 1.7 | 0.00 | 0.00 | 0.00 | 56 | 1011.0 |
| 20260503053018 | 59 | 103 | 0.0 | 0.0 | 0.00 | 0.00 | 0.00 | 85 | 1011.8 |
| 20260503051539 | 59 | 103 | 0.0 | 0.0 | 0.00 | 0.00 | 0.00 | 85 | 1011.9 |
| 20260503050009 | 60 | 98 | 0.0 | 0.9 | 0.00 | 0.00 | 0.00 | 84 | 1012.2 |
| 20260503044543 | 60 | 97 | 0.0 | 0.9 | 0.00 | 0.00 | 0.00 | 83 | 1011.9 |
| 20260503043012 | 60 | 159 | 0.0 | 0.0 | 0.00 | 0.00 | 0.00 | 82 | 1011.8 |
| 20260503034532 | 61 | 169 | 0.0 | 0.0 | 0.00 | 0.00 | 0.00 | 79 | 1011.9 |
| 20260503021550 | 64 | 112 | 0.0 | 2.6 | 0.00 | 0.00 | 0.00 | 75 | 1011.8 |
| 20260503020027 | 66 | 150 | 0.0 | 0.0 | 0.00 | 0.00 | 0.00 | 71 | 1011.4 |
| 20260503014524 | 67 | 150 | 0.0 | 0.0 | 0.00 | 0.00 | 0.00 | 70 | 1010.9 |
| 20260503011535 | 69 | 139 | 0.0 | 0.0 | 0.00 | 0.00 | 0.00 | 64 | 1010.8 |
| 20260503004536 | 68 | 190 | 0.0 | 0.9 | 0.00 | 0.00 | 0.00 | 65 | 1010.8 |
| 20260503003007 | 68 | 114 | 0.0 | 1.7 | 0.00 | 0.00 | 0.00 | 65 | 1010.8 |
| 20260502234602 | 69 | 117 | 0.0 | 0.9 | 0.00 | 0.00 | 0.00 | 65 | 1011.0 |
| 20260502231601 | 70 | 138 | 0.0 | 0.9 | 0.00 | 0.00 | 0.00 | 59 | 1011.4 |
| 20260502223027 | 67 | 139 | 0.0 | 0.9 | 0.00 | 0.00 | 0.00 | 67 | 1012.0 |
| 20260502220020 | 67 | 132 | 0.0 | 1.7 | 0.00 | 0.00 | 0.00 | 63 | 1012.5 |